Location: Cabeza de Tigre
(10.4667°N, 66.7667°W)
Time: 06:43:34
(UTC+00:00)

Daily predictions for brighter satellites

Satellite Brightness Start Highest point End
(mag) Time Altitude Azimuth Time Altitude Azimuth Time Altitude Azimuth
Sich 1 3.9 23:05:45 10° NNE 23:09:30 29° E 23:13:12 10° SE
Cosmos 1733 3.9 23:07:21 10° NNE 23:10:25 28° E 23:13:30 10° SE
CZ-2C R/B 4.5 23:07:42 10° SSW 23:10:51 31° W 23:13:57 10° NW
Cosmos 1302 Rocket 4.4 23:05:56 10° NNW 23:11:08 68° WSW 23:16:22 10° S
Lacrosse 4 Rocket 2.9 23:07:38 10° NW 23:11:37 39° WSW 23:15:39 10° S
GPS 2-12 Rocket1 4.3 23:08:12 10° W 23:12:18 39° NNW 23:16:27 10° ENE
ARIANE 5 R/B 4.4 20:05:52 10° W 23:14:12 56° S 23:21:43 10° ESE
Radarsat Rocket 4.2 23:09:21 10° SSE 23:15:32 73° ENE 23:22:29 10° N
FALCON 9 R/B 4.1 23:13:34 10° NNE 23:15:45 13° NE 23:19:00 10° ENE
Meteor 1-11 Rocket 3.9 23:12:49 10° N 23:18:46 74° E 23:24:41 10° S
USA 59 Rocket 1.9 23:13:26 10° NW 23:19:28 60° WSW 23:27:57 10° SSE
Cosmos 2279 Rocket 4.0 23:13:26 10° N 23:19:38 75° E 23:25:53 10° S
Cosmos 1340 2.3 23:18:47 10° N 23:22:05 62° E 23:25:24 10° SSE
Meteor 2-4 Rocket 3.8 23:18:17 10° S 23:24:13 82° E 23:30:06 10° N
NOAA 6 4.2 23:19:22 10° S 23:24:29 77° WSW 23:29:38 10° NNW
SAR-Lupe-2 3.7 23:21:23 10° S 23:24:57 75° WSW 23:28:30 10° NNW
Meteor PRIRODA 4.2 23:24:33 10° SE 23:27:34 31° ENE 23:30:33 10° NNE
SWIFT 3.1 23:26:25 10° SW 23:29:54 30° SSE 23:32:46 14° E
SL-8 R/B 3.7 23:25:36 10° NNW 23:30:18 67° NE 23:34:26 13° SE
Cosmos 2026 Rocket 4.2 23:24:56 10° SSE 23:30:52 47° E 23:36:42 10° NNE
Cosmos 1697 Rocket 3.8 23:27:53 10° NNE 23:32:26 25° ENE 23:35:59 14° ESE
Cosmos 1975 4.3 23:30:15 10° NE 23:32:53 18° E 23:34:17 15° ESE
ADEOS Rocket 4.0 23:27:03 10° S 23:33:47 59° WSW 23:41:09 10° NNW
Cosmos 1626 1.9 23:33:47 10° S 23:36:57 71° W 23:40:06 10° N
Meteor 2-10 3.9 23:32:58 10° N 23:37:59 89° W 23:43:02 10° S
Resurs 01 Rocket 3.7 23:38:20 10° E 23:38:39 10° ENE 23:38:59 10° ENE
CZ-4B R/B 3.8 23:37:42 15° SE 23:40:28 32° ENE 23:44:12 10° NNE
Cosmos 1328 Rocket 3.4 23:36:52 10° S 23:41:09 77° E 23:45:24 10° N
COSMOS 2406 4.2 23:36:12 10° SSW 23:41:46 52° WNW 23:47:21 10° N
USA 186 4.1 23:42:31 11° ENE 23:42:31 11° ENE 23:43:17 10° ENE
GPS 2-15 Rocket1 3.2 23:41:06 10° WSW 23:45:54 83° NNW 23:50:37 11° ENE
Cosmos 44 Rocket 3.4 23:44:39 10° NNW 23:49:18 69° WSW 23:53:33 12° SSE
ATLAS CENTAUR R/B 1.0 23:46:00 10° S 23:49:21 47° ESE 23:52:40 10° NE
Cosmos 1980 Rocket 3.8 23:48:07 10° NE 23:51:11 15° ENE 23:52:08 14° E
Cosmos 1743 Rocket 3.9 23:50:11 10° N 23:54:35 67° W 23:58:57 10° S
